Location: Bottenau
(48.5138°N, 8.0462°E)
Time: 16:16:58
(UTC+00:00)

Cosmos 1980 - Pass Details

Date: 18 April 2021
Orbit: 838 x 848 km, 71.0° (Epoch: 06 May)

Event Time Altitude Azimuth Distance (km) Brightness Sun altitude
Rises 20:28:54 0° 330° (NNW) 3,419 8.3 -18.6°
Reaches altitude 10° 20:31:22 10° 329° (NNW) 2,481 7.3 -18.9°
Maximum altitude 20:37:02 73° 246° (WSW) 889 3.8 -19.5°
Enters shadow 20:39:45 32° 169° (SSE) 1,422 4.4 -19.9°
